KT2UU-13 Weather Reports


time (UTC)temp
F
wind
direction
speed
knots
gust
knots
rain 1hr
in
rain 24hr
in
rain mn
in
humidity
%
barometer
mb
20240222104927 47 92 1.7 3.5 0.00 0.00 0.00 58 1019.4
20240222104426 46 84 0.0 0.9 0.00 0.00 0.00 59 1019.1
20240222103924 47 84 0.0 0.0 0.00 0.00 0.00 59 1019.3
20240222103423 47 84 0.0 1.7 0.00 0.00 0.00 58 1019.2
20240222102921 47 86 0.9 0.9 0.00 0.00 0.00 58 1019.4
20240222102420 47 89 0.9 0.9 0.00 0.00 0.00 57 1019.3
20240222101918 47 89 0.9 1.7 0.00 0.00 0.00 56 1019.4
20240222101418 47 83 0.9 1.7 0.00 0.00 0.00 56 1019.6
20240222100917 47 80 0.9 1.7 0.00 0.00 0.00 57 1019.3
20240222100415 47 63 0.0 0.9 0.00 0.00 0.00 57 1019.4
20240222095913 48 62 0.0 1.7 0.00 0.00 0.00 57 1019.5
20240222095412 48 51 0.0 0.9 0.00 0.00 0.00 57 1019.3
20240222094913 47 325 0.0 0.0 0.00 0.00 0.00 58 1019.4
20240222094411 48 325 0.0 0.0 0.00 0.00 0.00 57 1019.5
20240222093909 48 325 0.0 0.0 0.00 0.00 0.00 56 1019.4
20240222093409 49 325 0.0 0.9 0.00 0.00 0.00 55 1019.4
20240222092906 49 324 0.0 0.9 0.00 0.00 0.00 54 1019.4
20240222092405 49 83 0.0 0.9 0.00 0.00 0.00 54 1019.4
20240222091904 49 100 0.0 0.9 0.00 0.00 0.00 54 1019.4
20240222091404 50 89 0.0 0.9 0.00 0.00 0.00 53 1019.5
20240222090902 50 193 1.7 2.6 0.00 0.00 0.00 52 1019.4
20240222090401 49 117 0.0 0.9 0.00 0.00 0.00 53 1019.3
20240222085900 49 138 0.0 0.9 0.00 0.00 0.00 53 1019.6
20240222085358 49 78 0.0 0.9 0.00 0.00 0.00 52 1019.7
20240222084857 49 80 0.9 0.9 0.00 0.00 0.00 53 1019.6
20240222084355 49 84 0.0 0.0 0.00 0.00 0.00 53 1019.7
20240222083854 48 141 0.0 0.9 0.00 0.00 0.00 54 1019.8
20240222083353 48 141 0.0 0.0 0.00 0.00 0.00 54 1019.8
20240222082852 49 141 0.0 0.9 0.00 0.00 0.00 52 1019.8
20240222082350 50 143 0.0 0.9 0.00 0.00 0.00 51 1019.8
20240222081849 50 105 0.0 0.0 0.00 0.00 0.00 52 1019.8
20240222081347 50 156 0.0 0.9 0.00 0.00 0.00 50 1019.9
20240222080245 50 124 0.0 0.9 0.00 0.00 0.00 51 1019.9
20240222075744 50 78 0.0 0.9 0.00 0.00 0.00 51 1020.3
20240222075243 50 78 0.0 0.9 0.00 0.00 0.00 50 1020.1
20240222074742 50 78 0.0 0.9 0.00 0.00 0.00 50 1020.2
20240222074242 50 86 0.0 0.0 0.00 0.00 0.00 51 1020.3
20240222073741 51 216 0.0 2.6 0.00 0.00 0.00 49 1020.3
20240222073240 50 208 0.0 0.9 0.00 0.00 0.00 49 1020.3
20240222072738 50 151 0.9 1.7 0.00 0.00 0.00 51 1020.2
20240222072237 50 88 0.0 0.9 0.00 0.00 0.00 51 1020.0
20240222071735 49 84 0.0 0.9 0.00 0.00 0.00 51 1020.2
20240222071235 49 70 0.0 0.9 0.00 0.00 0.00 52 1020.0
20240222070735 49 78 0.9 1.7 0.00 0.00 0.00 52 1020.3
20240222070233 49 90 0.0 1.7 0.00 0.00 0.00 52 1020.0
20240222065731 49 93 0.0 1.7 0.00 0.00 0.00 52 1020.2
20240222065231 49 83 0.9 1.7 0.00 0.00 0.00 51 1020.3
20240222064730 49 81 1.7 2.6 0.00 0.00 0.00 50 1020.3
20240222064230 49 87 0.9 0.9 0.00 0.00 0.00 51 1020.1
20240222063728 49 85 0.9 0.9 0.00 0.00 0.00 51 1020.2
20240222063227 48 111 0.0 0.0 0.00 0.00 0.00 53 1020.6
20240222062726 48 111 0.0 0.9 0.00 0.00 0.00 53 1020.4
20240222062225 48 138 0.0 0.9 0.00 0.00 0.00 52 1020.5
20240222061725 49 138 0.0 0.0 0.00 0.00 0.00 51 1020.4
20240222061225 50 138 0.0 0.0 0.00 0.00 0.00 50 1020.4
20240222060724 49 108 0.0 0.9 0.00 0.00 0.00 49 1020.5
20240222060224 49 86 0.0 0.0 0.00 0.00 0.00 50 1020.5
20240222055724 49 85 0.0 0.0 0.00 0.00 0.00 49 1020.6
20240222055222 50 85 0.0 0.0 0.00 0.00 0.00 49 1020.5
20240222054720 51 85 0.0 0.9 0.00 0.00 0.00 48 1020.6
20240222054219 51 84 0.0 0.9 0.00 0.00 0.00 48 1020.4
20240222053718 50 100 0.0 1.7 0.00 0.00 0.00 47 1020.3
20240222053217 51 84 0.0 0.9 0.00 0.00 0.00 48 1020.3
20240222052716 51 88 0.0 0.9 0.00 0.00 0.00 47 1020.1
20240222052214 52 88 0.0 2.6 0.00 0.00 0.00 46 1020.3
20240222051713 52 93 1.7 2.6 0.00 0.00 0.00 46 1020.4
20240222051211 52 97 1.7 2.6 0.00 0.00 0.00 45 1020.5
20240222050710 52 72 0.9 2.6 0.00 0.00 0.00 45 1020.6
20240222050207 52 81 0.0 1.7 0.00 0.00 0.00 45 1020.8
20240222045706 52 92 0.9 1.7 0.00 0.00 0.00 45 1020.8
20240222045203 52 87 0.0 0.9 0.00 0.00 0.00 46 1020.8
20240222044703 52 77 0.0 1.7 0.00 0.00 0.00 45 1020.9
20240222044200 51 78 0.0 0.9 0.00 0.00 0.00 47 1020.8
20240222043658 51 78 0.9 0.9 0.00 0.00 0.00 47 1021.0
20240222043157 51 78 0.0 0.9 0.00 0.00 0.00 47 1021.2
20240222042656 51 78 0.0 0.0 0.00 0.00 0.00 46 1021.2
20240222042154 51 77 0.0 0.0 0.00 0.00 0.00 46 1021.3
20240222041653 52 78 0.0 0.9 0.00 0.00 0.00 46 1021.2
20240222041152 52 77 0.0 0.9 0.00 0.00 0.00 45 1021.3
20240222040651 51 80 0.0 0.0 0.00 0.00 0.00 46 1021.4
20240222040149 51 87 0.0 0.9 0.00 0.00 0.00 47 1021.5
20240222035648 51 94 0.0 0.9 0.00 0.00 0.00 46 1021.7
20240222035148 52 157 0.0 0.0 0.00 0.00 0.00 46 1021.5
20240222034647 51 74 0.0 0.0 0.00 0.00 0.00 45 1021.5
20240222034146 52 74 0.0 0.0 0.00 0.00 0.00 45 1021.5
20240222033645 52 72 0.0 0.9 0.00 0.00 0.00 44 1021.6
20240222033144 52 53 0.0 0.9 0.00 0.00 0.00 45 1021.6
20240222032642 52 82 0.0 0.0 0.00 0.00 0.00 45 1021.6
20240222032141 52 82 0.0 0.9 0.00 0.00 0.00 44 1021.4
20240222031639 52 81 0.0 0.0 0.00 0.00 0.00 44 1021.8
20240222031138 53 80 0.0 0.9 0.00 0.00 0.00 44 1021.5
20240222030636 52 168 0.0 0.0 0.00 0.00 0.00 44 1021.6
20240222030132 53 168 0.0 0.0 0.00 0.00 0.00 44 1021.5
20240222025630 54 168 0.0 0.9 0.00 0.00 0.00 42 1021.6
20240222025128 54 168 0.0 0.9 0.00 0.00 0.00 42 1021.6
20240222024626 53 146 0.0 0.0 0.00 0.00 0.00 43 1021.2
20240222024126 54 146 0.0 0.9 0.00 0.00 0.00 42 1021.3
20240222023625 54 146 0.0 0.9 0.00 0.00 0.00 41 1021.5
20240222023125 54 121 0.0 0.9 0.00 0.00 0.00 41 1021.4
20240222022624 53 92 0.0 0.9 0.00 0.00 0.00 42 1021.4
20240222022123 54 91 0.0 0.0 0.00 0.00 0.00 42 1021.3
20240222021624 54 85 0.0 0.0 0.00 0.00 0.00 41 1021.3
20240222021123 55 72 0.0 0.9 0.00 0.00 0.00 41 1021.3
20240222020622 55 72 0.0 0.9 0.00 0.00 0.00 40 1021.2
20240222020123 56 72 0.0 0.9 0.00 0.00 0.00 40 1021.3
20240222015621 56 86 0.0 0.0 0.00 0.00 0.00 40 1021.3
20240222015120 55 67 0.0 0.9 0.00 0.00 0.00 39 1021.1
20240222014618 56 99 0.0 0.0 0.00 0.00 0.00 40 1021.3
20240222014117 56 89 0.0 0.0 0.00 0.00 0.00 40 1021.3
20240222013615 57 86 0.0 0.0 0.00 0.00 0.00 39 1021.0
20240222013114 57 93 0.0 1.7 0.00 0.00 0.00 39 1021.3
20240222012613 57 226 0.9 1.7 0.00 0.00 0.00 38 1021.1
20240222012113 57 83 0.0 1.7 0.00 0.00 0.00 39 1021.4
20240222011611 56 89 0.0 0.9 0.00 0.00 0.00 39 1021.3
20240222011110 56 101 0.0 0.9 0.00 0.00 0.00 39 1021.6
20240222010610 56 122 0.0 0.9 0.00 0.00 0.00 39 1021.7
20240222010108 56 91 0.9 1.7 0.00 0.00 0.00 39 1021.8
20240222005606 56 106 0.0 0.0 0.00 0.00 0.00 40 1021.5
20240222005105 55 96 0.0 0.9 0.00 0.00 0.00 40 1021.6
20240222004605 55 175 0.0 0.9 0.00 0.00 0.00 41 1021.6
20240222004103 55 109 0.0 0.0 0.00 0.00 0.00 41 1021.6
20240222003602 55 109 0.0 0.0 0.00 0.00 0.00 40 1021.7
20240222003102 56 102 0.0 0.0 0.00 0.00 0.00 40 1021.8
20240222002601 56 102 0.0 0.0 0.00 0.00 0.00 39 1021.6
20240222002059 56 75 0.0 0.9 0.00 0.00 0.00 39 1021.7
20240222001555 56 74 0.0 0.0 0.00 0.00 0.00 41 1021.6
20240222001053 56 75 0.0 0.0 0.00 0.00 0.00 40 1021.6
20240222000552 57 75 0.0 0.9 0.00 0.00 0.00 39 1021.6
20240222000050 58 74 0.0 0.0 0.00 0.00 0.00 38 1021.6
20240221235549 58 75 0.0 0.9 0.00 0.00 0.00 37 1021.7
20240221235047 59 92 0.0 1.7 0.00 0.00 0.00 37 1021.6
20240221234544 58 91 0.9 0.9 0.00 0.00 0.00 36 1021.7
20240221234042 59 81 0.0 0.9 0.00 0.00 0.00 37 1021.8
20240221233540 59 83 0.0 0.0 0.00 0.00 0.00 36 1021.8
20240221233038 59 83 0.0 0.9 0.00 0.00 0.00 36 1021.8
20240221232536 60 83 0.0 0.0 0.00 0.00 0.00 35 1021.8
20240221232035 61 83 0.0 0.9 0.00 0.00 0.00 34 1021.9
20240221231533 61 83 0.0 0.9 0.00 0.00 0.00 34 1022.0
20240221231020 62 85 0.0 0.9 0.00 0.00 0.00 33 1022.1
20240221230519 62 88 0.9 0.9 0.00 0.00 0.00 32 1022.1
20240221230018 62 88 0.0 0.9 0.00 0.00 0.00 32 1022.0
20240221225516 63 77 0.9 1.7 0.00 0.00 0.00 32 1021.9
20240221225016 63 84 0.9 1.7 0.00 0.00 0.00 32 1021.9
20240221224515 64 115 0.0 0.9 0.00 0.00 0.00 31 1021.9
20240221224013 65 149 0.0 0.9 0.00 0.00 0.00 31 1022.2
20240221223513 65 182 0.9 0.9 0.00 0.00 0.00 29 1022.1
20240221223011 65 215 0.0 1.7 0.00 0.00 0.00 31 1022.0
20240221222508 65 223 1.7 2.6 0.00 0.00 0.00 29 1022.1
20240221222006 66 115 0.0 0.0 0.00 0.00 0.00 30 1022.3
20240221221506 66 237 0.0 1.7 0.00 0.00 0.00 29 1022.1
20240221221001 66 72 0.9 0.9 0.00 0.00 0.00 30 1022.2
20240221220501 67 81 0.0 0.9 0.00 0.00 0.00 30 1022.3
20240221215959 67 212 1.7 2.6 0.00 0.00 0.00 27 1022.3
20240221215457 67 248 3.5 3.5 0.00 0.00 0.00 27 1022.3
20240221214958 66 77 0.0 1.7 0.00 0.00 0.00 29 1022.2
20240221214457 67 233 4.3 5.2 0.00 0.00 0.00 27 1022.3
20240221213956 67 209 0.9 3.5 0.00 0.00 0.00 28 1022.5
20240221213455 67 239 0.9 1.7 0.00 0.00 0.00 28 1022.6
20240221212956 67 206 1.7 2.6 0.00 0.00 0.00 28 1022.7
20240221212455 66 90 1.7 3.5 0.00 0.00 0.00 28 1022.6
20240221211954 67 80 0.0 0.9 0.00 0.00 0.00 28 1022.8
20240221211453 67 64 0.9 1.7 0.00 0.00 0.00 28 1022.8
20240221210953 66 159 0.0 3.5 0.00 0.00 0.00 27 1022.8
20240221210452 66 225 0.9 3.5 0.00 0.00 0.00 28 1023.0
20240221205951 67 221 4.3 7.0 0.00 0.00 0.00 27 1023.0
20240221205451 67 251 1.7 2.6 0.00 0.00 0.00 28 1023.1
20240221204949 67 231 1.7 1.7 0.00 0.00 0.00 28 1023.1
20240221204447 67 207 0.9 3.5 0.00 0.00 0.00 27 1023.2
20240221203946 66 208 1.7 5.2 0.00 0.00 0.00 26 1023.2
20240221203445 67 242 0.9 0.9 0.00 0.00 0.00 27 1023.3
20240221202943 66 217 1.7 7.8 0.00 0.00 0.00 29 1023.3
20240221202442 66 245 2.6 3.5 0.00 0.00 0.00 29 1023.4
20240221201942 66 245 1.7 3.5 0.00 0.00 0.00 27 1023.3
20240221201440 66 229 3.5 7.0 0.00 0.00 0.00 29 1023.5
20240221200940 68 200 1.7 5.2 0.00 0.00 0.00 27 1023.7
20240221200438 67 70 0.9 2.6 0.00 0.00 0.00 28 1023.4
20240221195936 67 229 3.5 3.5 0.00 0.00 0.00 28 1023.8
20240221195435 66 139 0.0 1.7 0.00 0.00 0.00 27 1023.7
20240221194935 66 239 2.6 6.1 0.00 0.00 0.00 28 1023.9
20240221194434 67 221 0.9 2.6 0.00 0.00 0.00 29 1024.0
20240221193933 65 205 0.9 1.7 0.00 0.00 0.00 28 1023.9
20240221193431 65 279 3.5 6.1 0.00 0.00 0.00 28 1024.2
20240221192930 64 215 3.5 7.8 0.00 0.00 0.00 32 1024.2
20240221192427 66 184 0.9 2.6 0.00 0.00 0.00 30 1024.3
20240221191926 65 264 0.0 5.2 0.00 0.00 0.00 28 1024.2
20240221191424 65 78 1.7 1.7 0.00 0.00 0.00 28 1024.3
20240221190922 65 245 0.0 5.2 0.00 0.00 0.00 29 1024.4
20240221190422 65 206 1.7 5.2 0.00 0.00 0.00 28 1024.4
20240221185921 64 187 0.9 1.7 0.00 0.00 0.00 29 1024.5
20240221185419 64 253 6.1 7.8 0.00 0.00 0.00 29 1024.7
20240221184918 64 239 0.9 5.2 0.00 0.00 0.00 29 1024.9
20240221184417 64 66 1.7 2.6 0.00 0.00 0.00 29 1025.0
20240221183916 63 229 1.7 2.6 0.00 0.00 0.00 29 1025.0
20240221183415 63 71 1.7 6.1 0.00 0.00 0.00 31 1025.1
20240221182914 64 112 0.9 2.6 0.00 0.00 0.00 29 1025.1
20240221182412 63 217 2.6 3.5 0.00 0.00 0.00 28 1025.3
20240221181910 62 229 0.0 1.7 0.00 0.00 0.00 27 1025.4
20240221181410 62 222 1.7 3.5 0.00 0.00 0.00 28 1025.6
20240221180908 63 242 3.5 5.2 0.00 0.00 0.00 29 1025.7
20240221180407 63 230 0.9 3.5 0.00 0.00 0.00 29 1026.0
20240221175905 63 124 0.9 6.1 0.00 0.00 0.00 31 1026.3
20240221175404 63 189 5.2 7.0 0.00 0.00 0.00 29 1026.4
20240221174902 63 90 2.6 2.6 0.00 0.00 0.00 29 1026.4
20240221174401 62 250 1.7 2.6 0.00 0.00 0.00 29 1026.6
20240221173900 61 256 6.1 7.0 0.00 0.00 0.00 28 1026.6
20240221173358 62 261 0.9 6.1 0.00 0.00 0.00 27 1026.8
20240221172856 62 205 3.5 3.5 0.00 0.00 0.00 28 1026.6
20240221172353 62 242 4.3 7.0 0.00 0.00 0.00 27 1026.7
20240221171834 61 226 2.6 5.2 0.00 0.00 0.00 28 1027.1
20240221171333 61 214 1.7 5.2 0.00 0.00 0.00 31 1026.9
20240221170832 61 217 0.9 5.2 0.00 0.00 0.00 27 1027.1
20240221170330 60 242 3.5 5.2 0.00 0.00 0.00 30 1027.2
20240221165828 59 232 1.7 6.1 0.00 0.00 0.00 31 1027.3
20240221165327 60 239 1.7 5.2 0.00 0.00 0.00 30 1027.5
20240221164811 60 137 0.0 2.6 0.00 0.00 0.00 29 1027.3
20240221164310 60 98 1.7 2.6 0.00 0.00 0.00 29 1027.4
20240221163809 60 206 0.0 1.7 0.00 0.00 0.00 33 1027.6
20240221163307 58 198 0.0 2.6 0.00 0.00 0.00 36 1027.6
20240221162806 58 223 0.0 1.7 0.00 0.00 0.00 37 1027.6
20240221162305 58 221 0.0 0.9 0.00 0.00 0.00 37 1027.7
20240221161750 57 221 2.6 2.6 0.00 0.00 0.00 37 1027.8
20240221161249 58 259 2.6 3.5 0.00 0.00 0.00 37 1028.0
20240221160749 57 207 0.0 2.6 0.00 0.00 0.00 36 1028.0
20240221160247 57 100 0.9 2.6 0.00 0.00 0.00 38 1028.2
20240221155746 56 87 1.7 2.6 0.00 0.00 0.00 38 1028.1
20240221155244 55 71 2.6 7.0 0.00 0.00 0.00 38 1028.1
20240221154742 56 123 0.9 3.5 0.00 0.00 0.00 39 1028.2
20240221154240 56 160 0.9 1.7 0.00 0.00 0.00 40 1028.3
20240221153740 55 242 0.9 0.9 0.00 0.00 0.00 40 1028.5
20240221153237 53 87 0.9 1.7 0.00 0.00 0.00 41 1028.5
20240221152736 52 301 0.0 1.7 0.00 0.00 0.00 45 1028.5
20240221152235 52 255 0.9 1.7 0.00 0.00 0.00 45 1028.3
20240221151734 50 254 0.0 1.7 0.00 0.00 0.00 47 1028.3
20240221151234 50 259 0.9 0.9 0.00 0.00 0.00 47 1028.5
20240221150733 49 265 0.0 0.9 0.00 0.00 0.00 49 1028.6
20240221150233 49 267 0.9 0.9 0.00 0.00 0.00 50 1028.6
20240221145732 47 266 1.7 1.7 0.00 0.00 0.00 51 1028.4
20240221145231 48 262 1.7 2.6 0.00 0.00 0.00 53 1028.6
20240221144730 48 255 0.0 0.9 0.00 0.00 0.00 52 1028.3
20240221144228 47 254 0.0 1.7 0.00 0.00 0.00 54 1028.3
20240221143726 46 261 0.0 1.7 0.00 0.00 0.00 55 1028.0
20240221143224 46 258 0.9 1.7 0.00 0.00 0.00 55 1028.4
20240221142724 46 306 0.0 0.9 0.00 0.00 0.00 56 1028.4
20240221142224 44 244 0.9 0.9 0.00 0.00 0.00 54 1028.4
20240221141724 45 244 0.9 0.9 0.00 0.00 0.00 57 1028.3
20240221141224 44 243 0.0 0.0 0.00 0.00 0.00 60 1028.3
20240221140724 42 243 0.0 0.0 0.00 0.00 0.00 60 1028.3
20240221140224 41 243 0.0 0.0 0.00 0.00 0.00 61 1028.3
20240221135722 42 243 0.0 0.0 0.00 0.00 0.00 62 1028.1
20240221135223 42 243 0.0 0.0 0.00 0.00 0.00 64 1028.1
20240221134721 41 243 0.0 0.0 0.00 0.00 0.00 64 1028.0
20240221134220 38 243 0.0 0.0 0.00 0.00 0.00 67 1028.0
20240221133718 38 243 0.0 0.0 0.00 0.00 0.00 67 1028.0
20240221133216 37 243 0.0 0.0 0.00 0.00 0.00 68 1028.2
20240221132715 36 243 0.0 0.0 0.00 0.00 0.00 70 1027.8
20240221132214 35 243 0.0 0.0 0.00 0.00 0.00 74 1027.6
20240221131713 34 243 0.0 0.0 0.00 0.00 0.00 76 1027.5
20240221131212 33 243 0.0 0.0 0.00 0.00 0.00 75 1027.4
20240221130711 34 243 0.0 0.0 0.00 0.00 0.00 73 1027.3
20240221130209 34 243 0.0 0.0 0.00 0.00 0.00 74 1027.0
20240221125709 32 243 0.0 0.0 0.00 0.00 0.00 79 1027.1
20240221125207 31 243 0.0 0.0 0.00 0.00 0.00 81 1027.2
20240221124707 30 243 0.0 0.0 0.00 0.00 0.00 81 1027.1
20240221124206 29 243 0.0 0.0 0.00 0.00 0.00 82 1027.4
20240221123705 29 243 0.0 0.0 0.00 0.00 0.00 83 1027.1
20240221123206 29 243 0.0 0.0 0.00 0.00 0.00 83 1027.3
20240221122704 29 243 0.0 0.0 0.00 0.00 0.00 82 1027.4
20240221122202 29 243 0.0 0.0 0.00 0.00 0.00 81 1027.2
20240221121701 29 243 0.0 0.0 0.00 0.00 0.00 81 1027.2
20240221121201 29 243 0.0 0.0 0.00 0.00 0.00 80 1027.2
20240221120700 29 243 0.0 0.0 0.00 0.00 0.00 81 1027.0
20240221120156 29 243 0.0 0.0 0.00 0.00 0.00 82 1026.9
20240221115655 29 243 0.0 0.0 0.00 0.00 0.00 81 1026.9
20240221115153 29 243 0.0 0.0 0.00 0.00 0.00 81 1026.7
20240221114652 29 243 0.0 0.0 0.00 0.00 0.00 81 1026.8
20240221114151 29 243 0.0 0.0 0.00 0.00 0.00 82 1026.9
20240221113650 29 243 0.0 0.0 0.00 0.00 0.00 80 1026.7
20240221113149 29 243 0.0 0.0 0.00 0.00 0.00 81 1026.7
20240221112648 29 243 0.0 0.0 0.00 0.00 0.00 81 1026.7
20240221112147 29 243 0.0 0.0 0.00 0.00 0.00 81 1026.9
20240221111645 30 243 0.0 0.0 0.00 0.00 0.00 81 1026.7
20240221111143 30 243 0.0 0.0 0.00 0.00 0.00 78 1026.7
20240221110642 30 243 0.0 0.0 0.00 0.00 0.00 79 1026.6
20240221110140 29 243 0.0 0.0 0.00 0.00 0.00 82 1026.7
20240221105639 29 243 0.0 0.0 0.00 0.00 0.00 81 1026.5